Hourly Weather Ludy

Today, 13 June, Sunday

Time Temperature Precipitation Wind Pressure Humidity
00:00 +12°C° 1.3 mm 3 mps 731 mmHg 97%
01:00 +11°C° 1.3 mm 3 mps 731 mmHg 97%
02:00 +11°C° 1.3 mm 3 mps 731 mmHg 97%
03:00 +11°C° 0.2 mm 3 mps 731 mmHg 97%
04:00 +11°C° 0.2 mm 3 mps 731 mmHg 97%
05:00 +11°C° 0.2 mm 3 mps 731 mmHg 96%
06:00 +11°C° 0 mm 3 mps 731 mmHg 94%
07:00 +12°C° 0 mm 3 mps 732 mmHg 91%
08:00 +12°C° 0 mm 3 mps 732 mmHg 89%
09:00 +13°C° 0.1 mm 3 mps 732 mmHg 85%
10:00 +14°C° 0.1 mm 3 mps 732 mmHg 81%
11:00 +16°C° 0.1 mm 3 mps 733 mmHg 78%
12:00 +16°C° 1 mm 3 mps 733 mmHg 80%
13:00 +14°C° 1 mm 4 mps 733 mmHg 82%
14:00 +14°C° 1 mm 4 mps 733 mmHg 84%
15:00 +14°C° 0.8 mm 5 mps 734 mmHg 86%
16:00 +14°C° 0.8 mm 6 mps 734 mmHg 89%
17:00 +12°C° 0.8 mm 7 mps 735 mmHg 91%
18:00 +12°C° 0.7 mm 7 mps 735 mmHg 90%
19:00 +11°C° 0.7 mm 7 mps 736 mmHg 88%
20:00 +11°C° 0.7 mm 7 mps 736 mmHg 87%
21:00 +10°C° 0 mm 6 mps 737 mmHg 85%
22:00 +9°C° 0 mm 6 mps 737 mmHg 84%
23:00 +8°C° 0 mm 6 mps 738 mmHg 82%

Tomorrow, 14 June, Monday

Time Temperature Precipitation Wind Pressure Humidity
00:00 +8°C° 0 mm 6 mps 738 mmHg 83%
01:00 +7°C° 0 mm 5 mps 739 mmHg 84%
02:00 +7°C° 0 mm 5 mps 739 mmHg 85%
03:00 +6°C° 0 mm 5 mps 739 mmHg 87%
04:00 +6°C° 0 mm 5 mps 740 mmHg 88%
05:00 +6°C° 0 mm 5 mps 740 mmHg 90%
06:00 +7°C° 0 mm 5 mps 740 mmHg 86%
07:00 +8°C° 0 mm 5 mps 741 mmHg 81%
08:00 +10°C° 0 mm 5 mps 741 mmHg 77%
09:00 +12°C° 0 mm 5 mps 741 mmHg 73%
10:00 +14°C° 0 mm 4 mps 742 mmHg 69%
11:00 +15°C° 0 mm 4 mps 742 mmHg 65%
12:00 +17°C° 0 mm 4 mps 742 mmHg 62%
13:00 +18°C° 0 mm 3 mps 742 mmHg 59%
14:00 +19°C° 0 mm 3 mps 742 mmHg 55%
15:00 +19°C° 0 mm 3 mps 742 mmHg 57%
16:00 +19°C° 0 mm 3 mps 742 mmHg 59%
17:00 +19°C° 0 mm 3 mps 742 mmHg 61%
18:00 +18°C° 0 mm 3 mps 742 mmHg 67%
19:00 +16°C° 0 mm 3 mps 742 mmHg 73%
20:00 +15°C° 0 mm 2 mps 742 mmHg 79%
21:00 +14°C° 0 mm 2 mps 742 mmHg 82%
22:00 +12°C° 0 mm 2 mps 742 mmHg 84%
23:00 +10°C° 0 mm 2 mps 742 mmHg 86%

Day after tomorrow, 15 June, Tuesday

Time Temperature Precipitation Wind Pressure Humidity
00:00 +10°C° 0 mm 2 mps 742 mmHg 86%
01:00 +9°C° 0 mm 2 mps 741 mmHg 86%
02:00 +9°C° 0 mm 2 mps 741 mmHg 87%
03:00 +9°C° 0 mm 2 mps 741 mmHg 87%
04:00 +9°C° 0 mm 2 mps 741 mmHg 87%
05:00 +9°C° 0 mm 2 mps 742 mmHg 88%
06:00 +12°C° 0 mm 2 mps 741 mmHg 83%
07:00 +13°C° 0 mm 3 mps 741 mmHg 79%
08:00 +16°C° 0 mm 3 mps 741 mmHg 74%
09:00 +17°C° 0 mm 4 mps 741 mmHg 72%
10:00 +18°C° 0 mm 4 mps 741 mmHg 70%
11:00 +20°C° 0 mm 4 mps 741 mmHg 68%
12:00 +20°C° 0 mm 4 mps 741 mmHg 67%
13:00 +21°C° 0 mm 4 mps 741 mmHg 67%
14:00 +21°C° 0 mm 4 mps 740 mmHg 66%
15:00 +20°C° 0.4 mm 4 mps 740 mmHg 74%
16:00 +19°C° 0.4 mm 4 mps 740 mmHg 82%
17:00 +18°C° 0.4 mm 4 mps 740 mmHg 89%
18:00 +17°C° 0.2 mm 3 mps 740 mmHg 92%
19:00 +17°C° 0.2 mm 3 mps 740 mmHg 94%
20:00 +16°C° 0.2 mm 3 mps 740 mmHg 96%
21:00 +14°C° 0 mm 3 mps 740 mmHg 97%
22:00 +13°C° 0 mm 3 mps 740 mmHg 97%
23:00 +13°C° 0 mm 3 mps 740 mmHg 97%

16 June, Wednesday

Time Temperature Precipitation Wind Pressure Humidity
00:00 +11°C° 0 mm 3 mps 741 mmHg 96%
01:00 +10°C° 0 mm 3 mps 741 mmHg 95%
02:00 +8°C° 0 mm 3 mps 741 mmHg 94%
03:00 +8°C° 0 mm 2 mps 741 mmHg 94%
04:00 +8°C° 0 mm 2 mps 742 mmHg 95%
05:00 +8°C° 0 mm 2 mps 742 mmHg 95%
06:00 +9°C° 0 mm 3 mps 742 mmHg 89%
07:00 +11°C° 0 mm 3 mps 743 mmHg 84%
08:00 +13°C° 0 mm 3 mps 743 mmHg 78%
09:00 +14°C° 0 mm 3 mps 743 mmHg 71%
10:00 +17°C° 0 mm 3 mps 743 mmHg 64%
11:00 +18°C° 0 mm 3 mps 743 mmHg 58%
12:00 +19°C° 0 mm 3 mps 744 mmHg 55%
13:00 +19°C° 0 mm 3 mps 744 mmHg 53%
14:00 +20°C° 0 mm 2 mps 744 mmHg 51%
15:00 +20°C° 0 mm 2 mps 744 mmHg 54%
16:00 +20°C° 0 mm 2 mps 744 mmHg 57%
17:00 +20°C° 0 mm 2 mps 744 mmHg 59%
18:00 +19°C° 0 mm 2 mps 744 mmHg 65%
19:00 +17°C° 0 mm 2 mps 744 mmHg 71%
20:00 +16°C° 0 mm 2 mps 744 mmHg 77%
21:00 +15°C° 0 mm 2 mps 744 mmHg 79%
22:00 +13°C° 0 mm 1 mps 745 mmHg 80%
23:00 +12°C° 0 mm 1 mps 745 mmHg 81%

17 June, Thursday

Time Temperature Precipitation Wind Pressure Humidity
00:00 +12°C° 0 mm 1 mps 745 mmHg 82%
01:00 +12°C° 0 mm 1 mps 745 mmHg 82%
02:00 +11°C° 0 mm 1 mps 746 mmHg 83%
03:00 +10°C° 0 mm 2 mps 746 mmHg 83%
04:00 +10°C° 0 mm 2 mps 746 mmHg 84%
05:00 +10°C° 0 mm 2 mps 746 mmHg 84%
06:00 +13°C° 0 mm 2 mps 746 mmHg 80%
07:00 +15°C° 0 mm 2 mps 747 mmHg 75%
08:00 +17°C° 0 mm 2 mps 747 mmHg 71%
09:00 +19°C° 0 mm 2 mps 747 mmHg 66%
10:00 +20°C° 0 mm 2 mps 747 mmHg 61%
11:00 +21°C° 0 mm 3 mps 747 mmHg 57%
12:00 +21°C° 0 mm 3 mps 747 mmHg 55%
13:00 +22°C° 0 mm 3 mps 747 mmHg 54%
14:00 +23°C° 0 mm 2 mps 747 mmHg 52%
15:00 +22°C° 0 mm 3 mps 747 mmHg 56%
16:00 +22°C° 0 mm 3 mps 747 mmHg 59%
17:00 +22°C° 0 mm 3 mps 747 mmHg 62%
18:00 +21°C° 0 mm 2 mps 747 mmHg 67%
19:00 +19°C° 0 mm 2 mps 747 mmHg 72%
20:00 +18°C° 0 mm 2 mps 747 mmHg 77%
21:00 +17°C° 0 mm 2 mps 747 mmHg 79%
22:00 +15°C° 0 mm 2 mps 747 mmHg 81%
23:00 +14°C° 0 mm 2 mps 747 mmHg 83%

18 June, Friday

Time Temperature Precipitation Wind Pressure Humidity
00:00 +14°C° 0 mm 2 mps 747 mmHg 85%
01:00 +13°C° 0 mm 2 mps 747 mmHg 86%
02:00 +13°C° 0 mm 2 mps 747 mmHg 87%
03:00 +13°C° 0 mm 2 mps 748 mmHg 87%
04:00 +13°C° 0 mm 2 mps 748 mmHg 86%
05:00 +13°C° 0 mm 2 mps 748 mmHg 86%
06:00 +14°C° 0 mm 2 mps 748 mmHg 81%
07:00 +16°C° 0 mm 2 mps 748 mmHg 75%
08:00 +18°C° 0 mm 3 mps 748 mmHg 70%
09:00 +20°C° 0 mm 3 mps 748 mmHg 66%
10:00 +21°C° 0 mm 3 mps 748 mmHg 62%
11:00 +22°C° 0 mm 3 mps 748 mmHg 58%
12:00 +24°C° 0 mm 3 mps 748 mmHg 57%
13:00 +24°C° 0 mm 3 mps 747 mmHg 55%
14:00 +25°C° 0 mm 3 mps 747 mmHg 53%
15:00 +25°C° 0 mm 3 mps 747 mmHg 56%
16:00 +25°C° 0 mm 3 mps 747 mmHg 59%
17:00 +25°C° 0 mm 2 mps 747 mmHg 62%
18:00 +23°C° 0 mm 2 mps 746 mmHg 68%
19:00 +21°C° 0 mm 2 mps 746 mmHg 75%
20:00 +19°C° 0 mm 2 mps 746 mmHg 81%
21:00 +18°C° 0 mm 2 mps 746 mmHg 83%
22:00 +17°C° 0 mm 2 mps 746 mmHg 85%
23:00 +16°C° 0 mm 2 mps 747 mmHg 87%
Show more

We Need Your Consent

Meteoprog and our Service Providers may store and access personal data such as cookies, device identifiers or other similar technologies on your device and process such data to personalise content and ads, as well as provide social media features and to analyse the traffic.

  • Store and/or access information on your device

    Cookies, device identifiers or other information can be stored or accessed on your device for the purposes indicated above.

  • Personalised ads and content, ad and content measurement, audience insights, and products development

    Ads and content can be personalised based on a profile. More data can be added to better personalise ads and content. Ad and content performance can be measured. Insights about the audience who saw the ads and content can be derived. Such data can be used to develop or improve user’s experience, systems and software.

By clicking ‘I Agree’ you will allow the use of indicated cookies, device identifiers, web beacons or other similar technologies. Your settings can be changed in the browser on your device.

For certain purposes, legitimate interests may be relied on, rather than consent. You can read more about this in our Privacy and Cookie Policy.